AI0J-13 Weather Reports


time (UTC)temp
C
wind
direction
speed
KPH
gust
KPH
rain 1hr
cm
rain 24hr
cm
rain mn
cm
humidity
%
barometer
mb
20240229022506 -1 129 9.7 9.7 0.00 0.00 0.00 28 1008.2
20240229022003 0 97 14.5 17.7 0.00 0.00 0.00 27 1008.3
20240229021002 0 118 4.8 11.3 0.00 0.00 0.00 29 1008.4
20240229020502 0 85 8.0 9.7 0.00 0.00 0.00 30 1008.6
20240229015502 0 146 11.3 11.3 0.00 0.00 0.00 31 1008.7
20240229015002 0 135 3.2 14.5 0.00 0.00 0.00 31 1008.3
20240229014501 0 63 4.8 12.9 0.00 0.00 0.00 31 1008.5
20240229014002 0 151 3.2 17.7 0.00 0.00 0.00 33 1008.3
20240229013502 0 64 6.4 14.5 0.00 0.00 0.00 30 1008.5
20240229013002 0 72 11.3 16.1 0.00 0.00 0.00 31 1008.3
20240229012501 0 77 9.7 12.9 0.00 0.00 0.00 31 1008.4
20240229012002 0 34 6.4 11.3 0.00 0.00 0.00 31 1008.5
20240229011502 0 67 16.1 17.7 0.00 0.00 0.00 31 1008.3
20240229010503 0 91 3.2 9.7 0.00 0.00 0.00 32 1008.5
20240229010002 0 129 4.8 17.7 0.00 0.00 0.00 32 1008.4
20240229005502 0 31 6.4 17.7 0.00 0.00 0.00 29 1008.4
20240229005002 0 60 17.7 17.7 0.00 0.00 0.00 28 1008.5
20240229004502 0 73 8.0 17.7 0.00 0.00 0.00 28 1008.6
20240229003502 0 44 6.4 20.9 0.00 0.00 0.00 29 1008.6
20240229003002 1 104 4.8 11.3 0.00 0.00 0.00 31 1008.5
20240229002501 1 102 6.4 14.5 0.00 0.00 0.00 28 1008.4
20240229002002 1 78 16.1 17.7 0.00 0.00 0.00 27 1008.3
20240229001503 1 50 9.7 17.7 0.00 0.00 0.00 29 1008.4
20240229001002 2 278 8.0 8.0 0.00 0.00 0.00 26 1008.3
20240229000502 2 117 3.2 11.3 0.00 0.00 0.00 26 1008.4
20240229000001 2 92 6.4 27.4 0.00 0.00 0.00 27 1008.4
20240228235503 3 117 6.4 14.5 0.00 0.00 0.00 27 1008.3
20240228234502 3 235 6.4 19.3 0.00 0.00 0.00 25 1008.2
20240228234002 3 223 3.2 19.3 0.00 0.00 0.00 29 1008.2
20240228233502 3 112 4.8 9.7 0.00 0.00 0.00 25 1008.5
20240228233002 3 86 9.7 17.7 0.00 0.00 0.00 25 1008.4
20240228232501 3 206 6.4 30.6 0.00 0.00 0.00 25 1008.3
20240228231502 4 235 6.4 24.1 0.00 0.00 0.00 25 1008.2
20240228230502 4 192 4.8 9.7 0.00 0.00 0.00 26 1008.6
20240228230001 3 275 9.7 19.3 0.00 0.00 0.00 25 1008.4
20240228225002 2 275 12.9 20.9 0.00 0.00 0.00 26 1008.2
20240228224501 2 146 12.9 12.9 0.00 0.00 0.00 28 1008.2
20240228223002 3 239 17.7 19.3 0.00 0.00 0.00 27 1008.3
20240228222501 3 170 8.0 22.5 0.00 0.00 0.00 26 1008.2
20240228222002 3 265 6.4 24.1 0.00 0.00 0.00 26 1008.1
20240228221501 3 245 11.3 27.4 0.00 0.00 0.00 26 1008.0
20240228221002 3 182 6.4 37.0 0.00 0.00 0.00 26 1007.9
20240228220502 3 95 16.1 27.4 0.00 0.00 0.00 25 1007.8
20240228220002 3 138 14.5 27.4 0.00 0.00 0.00 27 1008.0
20240228214501 3 189 12.9 20.9 0.00 0.00 0.00 27 1008.3
20240228214002 3 218 9.7 16.1 0.00 0.00 0.00 28 1008.2
20240228213002 2 155 12.9 24.1 0.00 0.00 0.00 30 1008.0
20240228212502 2 246 22.5 29.0 0.00 0.00 0.00 29 1008.3
20240228212002 2 237 11.3 33.8 0.00 0.00 0.00 29 1008.1
20240228211502 2 249 9.7 25.7 0.00 0.00 0.00 30 1008.2
20240228211001 2 306 6.4 16.1 0.00 0.00 0.00 30 1008.0
20240228210502 2 121 14.5 17.7 0.00 0.00 0.00 31 1008.2
20240228210001 2 185 6.4 27.4 0.00 0.00 0.00 31 1008.3
20240228205502 2 279 8.0 29.0 0.00 0.00 0.00 31 1008.4
20240228205002 2 278 27.4 27.4 0.00 0.00 0.00 30 1008.2
20240228204502 2 269 11.3 20.9 0.00 0.00 0.00 30 1008.2
20240228204001 2 242 9.7 22.5 0.00 0.00 0.00 29 1007.9
20240228203002 1 275 17.7 30.6 0.00 0.00 0.00 30 1007.4
20240228202501 1 253 22.5 48.3 0.00 0.00 0.00 31 1007.6
20240228202002 1 262 24.1 41.8 0.00 0.00 0.00 30 1007.6
20240228201502 1 254 25.7 43.5 0.00 0.00 0.00 30 1007.5
20240228201001 0 267 24.1 43.5 0.00 0.00 0.00 31 1007.7
20240228195502 0 244 20.9 45.1 0.00 0.00 0.00 33 1007.7
20240228195002 0 245 24.1 45.1 0.00 0.00 0.00 33 1007.8
20240228194502 0 238 22.5 25.7 0.00 0.00 0.00 33 1007.6
20240228194002 0 268 9.7 49.9 0.00 0.00 0.00 34 1007.9
20240228193501 0 73 11.3 20.9 0.00 0.00 0.00 34 1008.0
20240228193002 0 261 24.1 41.8 0.00 0.00 0.00 33 1007.9
20240228192502 0 154 17.7 27.4 0.00 0.00 0.00 34 1007.9
20240228192002 0 156 12.9 27.4 0.00 0.00 0.00 33 1008.0
20240228191502 0 209 9.7 41.8 0.00 0.00 0.00 33 1007.8
20240228191002 0 202 12.9 32.2 0.00 0.00 0.00 36 1008.0
20240228190501 0 245 38.6 43.5 0.00 0.00 0.00 34 1007.9
20240228190002 0 157 12.9 45.1 0.00 0.00 0.00 34 1008.2
20240228185502 0 65 9.7 25.7 0.00 0.00 0.00 34 1008.2
20240228185001 0 192 9.7 24.1 0.00 0.00 0.00 33 1008.3
20240228184502 0 110 16.1 27.4 0.00 0.00 0.00 32 1008.2
20240228184001 -1 163 8.0 25.7 0.00 0.00 0.00 34 1008.2
20240228183502 -1 257 12.9 20.9 0.00 0.00 0.00 33 1008.2
20240228183002 -1 226 6.4 33.8 0.00 0.00 0.00 35 1008.3
20240228182503 -1 172 14.5 25.7 0.00 0.00 0.00 32 1008.6
20240228182001 -1 130 9.7 25.7 0.00 0.00 0.00 33 1008.4
20240228181502 -2 116 8.0 20.9 0.00 0.00 0.00 34 1008.1
20240228181001 -1 251 14.5 30.6 0.00 0.00 0.00 32 1008.7
20240228180001 -2 258 17.7 35.4 0.00 0.00 0.00 33 1008.0
20240228175502 -2 275 12.9 51.5 0.00 0.00 0.00 33 1007.9
20240228175001 -2 277 19.3 45.1 0.00 0.00 0.00 33 1007.7
20240228174503 0 231 9.7 29.0 0.00 0.00 0.00 30 1007.5
20240228174002 -2 190 9.7 61.2 0.00 0.00 0.00 32 1007.6
20240228173502 -1 259 30.6 41.8 0.00 0.00 0.00 32 1007.2
20240228173001 -1 248 29.0 51.5 0.00 0.00 0.00 31 1007.3
20240228172002 -1 251 22.5 38.6 0.00 0.00 0.00 31 1007.4
20240228171501 -1 237 19.3 45.1 0.00 0.00 0.00 30 1007.0
20240228171002 -2 167 12.9 29.0 0.00 0.00 0.00 32 1007.2
20240228170502 -2 200 11.3 32.2 0.00 0.00 0.00 32 1007.0
20240228165502 -2 266 20.9 27.4 0.00 0.00 0.00 31 1007.6
20240228164502 -2 276 12.9 48.3 0.00 0.00 0.00 30 1007.5
20240228164002 -2 330 8.0 22.5 0.00 0.00 0.00 33 1007.2
20240228163001 -3 153 6.4 37.0 0.00 0.00 0.00 33 1007.1
20240228162502 -3 295 4.8 29.0 0.00 0.00 0.00 33 1007.2
20240228162002 -3 265 12.9 33.8 0.00 0.00 0.00 32 1007.0
20240228161502 -4 264 20.9 32.2 0.00 0.00 0.00 33 1006.5
20240228161002 -5 254 32.2 41.8 0.00 0.00 0.00 34 1006.1
20240228160502 -5 261 19.3 53.1 0.00 0.00 0.00 34 1006.4
20240228155002 -5 231 11.3 32.2 0.00 0.00 0.00 34 1005.9
20240228154002 -5 320 24.1 25.7 0.00 0.00 0.00 34 1005.6
20240228153502 -5 251 11.3 46.7 0.00 0.00 0.00 34 1005.6
20240228152502 -4 280 29.0 40.2 0.00 0.00 0.00 34 1005.8
20240228152002 -4 252 16.1 41.8 0.00 0.00 0.00 35 1005.5
20240228151501 -4 254 9.7 25.7 0.00 0.00 0.00 34 1005.3
20240228151002 -5 233 17.7 30.6 0.00 0.00 0.00 34 1004.8
20240228150501 -5 201 11.3 56.3 0.00 0.00 0.00 35 1004.9
20240228150002 -5 275 27.4 35.4 0.00 0.00 0.00 35 1004.7
20240228145502 -6 304 9.7 49.9 0.00 0.00 0.00 36 1004.7
20240228145003 -6 223 11.3 57.9 0.00 0.00 0.00 35 1004.6
20240228144501 -6 182 16.1 59.5 0.00 0.00 0.00 38 1004.5
20240228142502 -7 243 30.6 53.1 0.00 0.00 0.00 36 1003.9
20240228142001 -7 251 14.5 41.8 0.00 0.00 0.00 36 1004.0
20240228141502 -8 268 8.0 53.1 0.00 0.00 0.00 37 1003.9
20240228141001 -8 247 19.3 74.0 0.00 0.00 0.00 37 1004.0
20240228140502 -8 266 24.1 77.2 0.00 0.00 0.00 36 1003.6
20240228140002 -8 272 27.4 78.9 0.00 0.00 0.00 36 1003.4
20240228135502 -9 248 25.7 70.8 0.00 0.00 0.00 37 1003.6
20240228135002 -10 249 40.2 59.5 0.00 0.00 0.00 37 1003.7
20240228134501 -10 263 37.0 48.3 0.00 0.00 0.00 38 1003.2
20240228134002 -10 237 27.4 56.3 0.00 0.00 0.00 38 1003.3
20240228133002 -11 242 22.5 67.6 0.00 0.00 0.00 39 1003.1
20240228132501 -11 287 24.1 53.1 0.00 0.00 0.00 40 1003.1
20240228132002 -10 279 20.9 49.9 0.00 0.00 0.00 39 1002.9
20240228131502 -10 236 24.1 56.3 0.00 0.00 0.00 38 1002.9
20240228131001 -10 265 25.7 64.4 0.00 0.00 0.00 38 1003.2
20240228130502 -11 252 32.2 46.7 0.00 0.00 0.00 38 1003.6
20240228130002 -11 256 14.5 80.5 0.00 0.00 0.00 38 1003.3
20240228125502 -11 258 37.0 66.0 0.00 0.00 0.00 37 1003.4
20240228125002 -11 248 22.5 51.5 0.00 0.00 0.00 39 1003.4
20240228124502 -12 240 29.0 69.2 0.00 0.00 0.00 40 1003.0
20240228124002 -12 255 46.7 82.1 0.00 0.00 0.00 42 1002.6
20240228123502 -12 267 11.3 57.9 0.00 0.00 0.00 43 1002.5
20240228123002 -12 235 14.5 53.1 0.00 0.00 0.00 41 1002.4
20240228122501 -12 237 19.3 66.0 0.00 0.00 0.00 43 1002.3
20240228122001 -12 240 20.9 62.8 0.00 0.00 0.00 43 1002.5
20240228120502 -13 208 12.9 57.9 0.00 0.00 0.00 46 1001.9
20240228120002 -13 178 11.3 62.8 0.00 0.00 0.00 46 1002.2
20240228115501 -13 335 17.7 53.1 0.00 0.00 0.00 46 1001.7
20240228115002 -13 227 19.3 46.7 0.00 0.00 0.00 48 1001.9
20240228114502 -13 284 17.7 62.8 0.00 0.00 0.00 48 1001.7
20240228113502 -13 237 32.2 51.5 0.00 0.00 0.00 49 1001.3
20240228113002 -13 233 25.7 82.1 0.00 0.00 0.00 49 1001.5
20240228112502 -13 234 25.7 49.9 0.00 0.00 0.00 51 1000.9
20240228112002 -13 175 14.5 48.3 0.00 0.00 0.00 53 1000.8
20240228111502 -13 285 8.0 49.9 0.00 0.00 0.00 51 1000.5
20240228111001 -13 240 33.8 51.5 0.00 0.00 0.00 52 1001.2
20240228110502 -13 126 9.7 41.8 0.00 0.00 0.00 53 1001.3
20240228110002 -13 242 19.3 48.3 0.00 0.00 0.00 54 1001.1
20240228105501 -14 268 12.9 43.5 0.00 0.00 0.00 55 1001.7
20240228105002 -14 222 12.9 53.1 0.00 0.00 0.00 55 1001.9
20240228104501 -14 251 37.0 64.4 0.00 0.00 0.00 55 1002.1
20240228104002 -14 267 16.1 37.0 0.00 0.00 0.00 57 1002.1
20240228103501 -14 229 27.4 41.8 0.00 0.00 0.00 57 1001.5
20240228103002 -14 213 14.5 57.9 0.00 0.00 0.00 57 1001.5
20240228102503 -14 227 14.5 51.5 0.00 0.00 0.00 57 1001.3
20240228102002 -14 237 35.4 45.1 0.00 0.00 0.00 58 1001.4
20240228101501 -14 214 16.1 32.2 0.00 0.00 0.00 59 1001.2
20240228101002 -14 256 19.3 48.3 0.00 0.00 0.00 58 1001.8
20240228100501 -15 247 24.1 51.5 0.00 0.00 0.00 59 1001.3
20240228100003 -15 266 11.3 41.8 0.00 0.00 0.00 60 1001.4
20240228095501 -15 204 9.7 38.6 0.00 0.00 0.00 60 1001.4
20240228094501 -15 255 43.5 67.6 0.00 0.00 0.00 60 1002.0
20240228093501 -15 156 8.0 37.0 0.00 0.00 0.00 62 1001.6
20240228093002 -15 256 27.4 53.1 0.00 0.00 0.00 61 1001.6
20240228092501 -15 249 20.9 54.7 0.00 0.00 0.00 59 1000.7
20240228092002 -15 228 22.5 61.2 0.00 0.00 0.00 61 1001.0
20240228091502 -15 151 20.9 74.0 0.00 0.00 0.00 60 1000.8
20240228090502 -15 178 16.1 41.8 0.00 0.00 0.00 61 1000.8
20240228090003 -15 247 25.7 37.0 0.00 0.00 0.00 59 1001.0
20240228085501 -15 174 19.3 45.1 0.00 0.00 0.00 60 1001.0
20240228085002 -15 275 33.8 66.0 0.00 0.00 0.00 59 1000.7
20240228084502 -15 244 40.2 59.5 0.00 0.00 0.00 59 1000.7
20240228084001 -15 236 37.0 69.2 0.00 0.00 0.00 59 1000.9
20240228083502 -15 230 16.1 61.2 0.00 0.00 0.00 58 1000.7
20240228082001 -15 259 25.7 41.8 0.00 0.00 0.00 62 1001.6
20240228081502 -15 245 14.5 29.0 0.00 0.00 0.00 62 1001.8
20240228080502 -15 258 20.9 35.4 0.00 0.00 0.00 60 1002.0
20240228075502 -15 230 11.3 51.5 0.00 0.00 0.00 62 1001.8
20240228075002 -15 259 14.5 41.8 0.00 0.00 0.00 60 1001.6
20240228074502 -15 275 12.9 48.3 0.00 0.00 0.00 61 1001.9
20240228073502 -15 248 11.3 43.5 0.00 0.00 0.00 61 1001.2
20240228073002 -15 195 8.0 43.5 0.00 0.00 0.00 61 1001.5
20240228072502 -15 228 22.5 41.8 0.00 0.00 0.00 60 1000.9
20240228072001 -15 294 45.1 72.4 0.00 0.00 0.00 60 1000.5
20240228071001 -15 278 9.7 40.2 0.00 0.00 0.00 62 1001.8
20240228070502 -15 255 19.3 33.8 0.00 0.00 0.00 61 1001.8
20240228070001 -15 317 4.8 38.6 0.00 0.00 0.00 62 1001.9
20240228065502 -15 230 11.3 35.4 0.00 0.00 0.00 62 1001.8
20240228065002 -15 291 4.8 24.1 0.00 0.00 0.00 62 1001.8
20240228064501 -15 288 6.4 29.0 0.00 0.00 0.00 62 1002.3
20240228064002 -14 229 30.6 41.8 0.00 0.00 0.00 60 1002.0
20240228063501 -15 327 12.9 22.5 0.00 0.00 0.00 61 1002.3
20240228063002 -14 264 14.5 33.8 0.00 0.00 0.00 59 1002.4
20240228062502 -14 355 12.9 49.9 0.00 0.00 0.00 61 1002.1
20240228062003 -15 37 3.2 14.5 0.00 0.00 0.00 61 1002.3
20240228061502 -15 61 8.0 14.5 0.00 0.00 0.00 62 1002.1
20240228061002 -15 193 6.4 11.3 0.00 0.00 0.00 63 1002.0
20240228060502 -14 316 6.4 20.9 0.00 0.00 0.00 62 1001.7
20240228060001 -14 252 12.9 35.4 0.00 0.00 0.00 62 1001.6
20240228055502 -15 253 24.1 43.5 0.00 0.00 0.00 64 1001.9
20240228055002 -15 304 9.7 14.5 0.00 0.00 0.00 64 1001.8
20240228053501 -14 285 8.0 19.3 0.00 0.00 0.00 64 1001.6
20240228053002 -14 253 4.8 22.5 0.00 0.00 0.00 64 1001.6
20240228052501 -14 55 4.8 22.5 0.00 0.00 0.00 66 1001.7
20240228052002 -14 258 17.7 35.4 0.00 0.00 0.00 65 1001.5
20240228051002 -14 269 12.9 32.2 0.00 0.00 0.00 68 1001.9
20240228050502 -14 276 17.7 27.4 0.00 0.00 0.00 69 1001.8
20240228050002 -14 279 11.3 30.6 0.00 0.00 0.00 71 1002.0
20240228045501 -14 239 14.5 25.7 0.00 0.00 0.00 70 1001.9
20240228045002 -14 273 14.5 14.5 0.00 0.00 0.00 70 1002.0
20240228044502 -14 285 9.7 14.5 0.00 0.00 0.00 70 1002.0
20240228044002 -14 308 6.4 17.7 0.00 0.00 0.00 69 1001.7
20240228043503 -14 262 4.8 17.7 0.00 0.00 0.00 69 1001.8
20240228043002 -14 292 16.1 49.9 0.00 0.00 0.00 68 1001.8
20240228041002 -14 136 4.8 6.4 0.00 0.00 0.00 72 1001.5
20240228040501 -14 54 4.8 6.4 0.00 0.00 0.00 70 1001.5
20240228040002 -14 287 4.8 17.7 0.00 0.00 0.00 69 1001.5
20240228035502 -14 271 8.0 14.5 0.00 0.00 0.00 74 1001.5
20240228035002 -14 237 6.4 9.7 0.00 0.00 0.00 76 1001.3
20240228034502 -14 265 6.4 9.7 0.00 0.00 0.00 75 1001.3
20240228034002 -14 125 3.2 9.7 0.00 0.00 0.00 75 1001.5
20240228033502 -14 52 3.2 9.7 0.00 0.00 0.00 69 1001.3
20240228033002 -14 263 8.0 11.3 0.00 0.00 0.00 73 1001.5
20240228032501 -14 242 12.9 16.1 0.00 0.00 0.00 71 1001.2
20240228032002 -14 244 8.0 8.0 0.00 0.00 0.00 76 1001.2
20240228030502 -14 281 8.0 20.9 0.00 0.00 0.00 73 1000.9
20240228030002 -14 242 9.7 37.0 0.00 0.00 0.00 73 1000.9
20240228024501 -14 259 6.4 29.0 0.00 0.00 0.00 76 1000.8
20240228024002 -14 259 11.3 24.1 0.00 0.00 0.00 75 1000.6
20240228023501 -13 292 16.1 29.0 0.00 0.00 0.00 75 1000.6
20240228023002 -13 268 17.7 29.0 0.00 0.00 0.00 75 1000.2